Back to catalog

STARLINK-4110

AliveCommunicationsVLEO
NORAD 53166·PAYLOAD·🇺🇸 United States

Launched Jul 17, 2022 from Cape Canaveral Space Force Station

Loading…

Next Passes (next 24 hours)

TLE

FreshSource: CelesTrak SupGP

Epoch: Sep 14, 2026, 14:20 UTC

1 53166C 22083AL  26257.59770833  .00114870  00000+0  35053-2 0  2575
2 53166  53.1592   1.3014 0001194  80.5666 272.4603 15.33313395    14

Track STARLINK-4110 in real time with AllMySat

Download on the App Store